This demonstration page uses our WeatherBlox Daily Observations layout. Learn more.

Left ArrowRight Arrow

47.50024, -111.30081

Hourly Observations for May 17, 2017

Temp ( °F °C ) Dew Point ( °F °C ) Humidity (%) Winds ( mph kmh ) Pressure ( in mb ) Visibility ( mi km ) Precip ( " mm )
12:53 am 00:53 Cloudy with Light Rain 45 7.2 43 6.1 93 93 N 8 13 29.55 1001 10 16 0.01 0.25
1:53 am 01:53 Cloudy 44 6.7 42 5.6 93 93 N 8 13 29.56 1001 10 16 0.02 0.51
2:09 am 02:09 Mostly Cloudy 44 6.7 43 6.1 96 96 N 7 11 29.56 1001 10 16 0.00 0.00
2:30 am 02:30 Cloudy 45 7.2 43 6.1 93 93 N 8 13 29.56 1001 10 16 0.00 0.00
2:41 am 02:41 Cloudy 45 7.2 43 6.1 93 93 N 7 11 29.56 1001 10 16 0.00 0.00
2:53 am 02:53 Cloudy 45 7.2 43 6.1 93 93 N 7 11 29.57 1001 10 16 0.00 0.00
3:09 am 03:09 Cloudy 45 7.2 43 6.1 93 93 N 8 13 29.56 1001 10 16 0.00 0.00
3:53 am 03:53 Cloudy 45 7.2 42 5.6 90 90 NE 9 15 29.57 1001 10 16 0.00 0.00
4:07 am 04:07 Cloudy 45 7.2 42 5.6 90 90 NE 13 20 29.56 1001 10 16 0.00 0.00
4:11 am 04:11 Cloudy 45 7.2 42 5.6 90 90 NE 10 17 29.56 1001 10 16 0.00 0.00
4:26 am 04:26 Cloudy 45 7.2 43 6.1 93 93 NE 10 17 29.59 1002 10 16 0.00 0.00
4:53 am 04:53 Cloudy 45 7.2 43 6.1 93 93 NE 10 17 29.60 1002 10 16 0.00 0.00
5:33 am 05:33 Cloudy with Light Rain 45 7.2 43 6.1 93 93 ENE 13 20 29.59 1002 8 13 0.04 1.02
7:48 am 07:48 Cloudy 46 8 45 7 93 93 ENE 14 22 29.62 1003 10 16 0.00 0.00
7:53 am 07:53 Cloudy 46 7.8 44 6.7 93 93 E 15 24 29.64 1004 10 16 0.00 0.00
8:32 am 08:32 Cloudy with Light Rain 46 7.8 42 5.6 86 86 E 20 31 29.65 1004 6 10 0.00 0.03
8:39 am 08:39 Cloudy with Light Rain 45 7.2 41 5 86 86 E 14 22 29.68 1005 3 5 0.00 0.03
8:53 am 08:53 Cloudy with Light Rain 45 7.2 41 5 86 86 E 14 22 29.68 1005 3 5 0.01 0.25
9:18 am 09:18 Cloudy with Light Rain 46 7.8 43 6.1 89 89 ENE 13 20 29.68 1005 6 10 0.03 0.76
9:22 am 09:22 Cloudy with Rain 46 7.8 44 6.7 93 93 ENE 14 22 29.68 1005 4 6 0.04 1.02
9:30 am 09:30 Cloudy with Light Rain 46 7.8 44 6.7 93 93 NE 16 26 29.68 1005 5 8 0.06 1.52
9:53 am 09:53 Cloudy with Light Rain 44 6.7 42 5.6 93 93 NE 23 37 29.72 1007 6 10 0.09 2.29
10:04 am 10:04 Cloudy with Light Rain 44 6.7 42 5.6 93 93 NE 17 28 29.71 1006 5 8 0.01 0.25
10:38 am 10:38 Cloudy with Light Rain 45 7.2 43 6.1 93 93 NE 20 31 29.71 1006 8 13 0.02 0.51
10:50 am 10:50 Cloudy with Light Rain 45 7 43 6 93 93 NE 20 31 29.71 1006 6 10 0.03 0.76
10:53 am 10:53 Cloudy with Light Rain 45 7.2 43 6.1 93 93 NE 18 30 29.74 1007 6 10 0.03 0.76
11:03 am 11:03 Cloudy with Light Rain 45 7.2 43 6.1 93 93 NE 21 33 29.71 1006 6 10 0.00 0.03
11:53 am 11:53 Cloudy with Light Rain 45 7.2 43 6.1 93 93 NE 20 31 29.79 1009 5 8 0.03 0.76
12:11 pm 12:11 Cloudy with Light Rain 45 7.2 42 5.6 90 90 NE 24 39 29.77 1008 5 8 0.03 0.76
12:26 pm 12:26 Cloudy with Rain 45 7.2 43 6.1 93 93 ENE 17 28 29.77 1008 4 6 0.07 1.78
12:51 pm 12:51 Cloudy with Light Rain 45 7 41 5 87 87 NE 17 28 29.77 1008 5 8 0.10 2.54
12:53 pm 12:53 Cloudy with Light Rain 45 7.2 41 5 86 86 NE 17 28 29.81 1010 6 10 0.10 2.54
1:23 pm 13:23 Cloudy 47 8.3 44 6.7 90 90 NNE 23 37 29.74 1007 9 14 0.01 0.25
1:53 pm 13:53 Cloudy with Light Rain 47 8.3 43 6.1 86 86 NNE 30 48 29.82 1010 6 10 0.01 0.25
2:38 pm 14:38 Cloudy with Light Rain 47 8.3 43 6.1 86 86 NNE 35 56 29.83 1010 9 14 0.00 0.03
2:46 pm 14:46 Cloudy with Light Rain 47 8.3 43 6.1 86 86 NNE 26 43 29.83 1010 8 13 0.00 0.03
2:53 pm 14:53 Cloudy with Light Rain 46 7.8 43 6.1 89 89 NNE 26 43 29.86 1011 7 11 0.00 0.03
3:15 pm 15:15 Cloudy with Light Rain 46 7.8 42 5.6 86 86 NNE 33 54 29.83 1010 9 14 0.01 0.25
3:23 pm 15:23 Cloudy with Light Rain 46 7.8 42 5.6 86 86 NNE 24 39 29.85 1011 6 10 0.01 0.25
3:30 pm 15:30 Cloudy with Light Rain 46 7.8 42 5.6 86 86 NE 26 43 29.85 1011 6 10 0.01 0.25
3:36 pm 15:36 Cloudy with Rain 45 7.2 42 5.6 90 90 NNE 30 48 29.91 1013 5 8 0.01 0.25
3:49 pm 15:49 Cloudy with Rain 45 7 43 6 93 93 NNE 26 43 29.91 1013 3 5 0.04 1.02
3:53 pm 15:53 Cloudy with Rain 45 7.2 42 5.6 90 90 NNE 25 41 29.92 1013 3 5 0.05 1.27
4:10 pm 16:10 Cloudy with Light Rain 45 7.2 42 5.6 90 90 NNE 23 37 29.94 1014 3 5 0.02 0.51
4:53 pm 16:53 Cloudy with Rain 44 6.7 42 5.6 93 93 NNE 16 26 29.96 1015 3 4 0.10 2.54
5:04 pm 17:04 Cloudy with Rain 44 6.7 42 5.6 93 93 NNE 22 35 29.94 1014 3 5 0.02 0.51
5:53 pm 17:53 Cloudy with Light Rain 44 6.7 42 5.6 93 93 NE 13 20 30.00 1016 5 8 0.10 2.54
6:00 pm 18:00 Cloudy with Light Rain 44 6.7 42 5.6 93 93 NE 14 22 29.97 1015 5 8 0.00 0.03
6:13 pm 18:13 Cloudy with Light Rain 45 7.2 42 5.6 90 90 NE 16 26 29.97 1015 9 14 0.01 0.25
6:53 pm 18:53 Cloudy with Light Rain 45 7.2 42 5.6 90 90 ENE 13 20 30.02 1017 7 11 0.02 0.51
7:53 pm 19:53 Cloudy with Light Rain 45 7.2 42 5.6 90 90 NNE 15 24 30.04 1017 10 16 0.02 0.51
8:53 pm 20:53 Cloudy with Light Rain 45 7.2 42 5.6 90 90 NE 10 17 30.07 1018 10 16 0.01 0.25
9:53 pm 21:53 Cloudy 45 7.2 42 5.6 90 90 NNE 10 17 30.09 1019 10 16 0.01 0.25
10:53 pm 22:53 Cloudy 44 6.7 40 4.4 85 85 NE 16 26 30.11 1020 10 16 0.00 0.00
11:03 pm 23:03 Cloudy 44 6.7 40 4.4 85 85 NE 16 26 30.09 1019 10 16 0.00 0.00
11:53 pm 23:53 Mostly Cloudy 43 6.1 39 3.9 86 86 NE 15 24 30.12 1020 10 16 0.00 0.00

Powered by AerisWeather